星链-32847 (STARLINK-32847)

导读 | 豆包AI

STARLINK-32847是美国于2025年1月24日发射的星链系列卫星。星链是SpaceX打造的大型卫星互联网星座项目,通过部署近地轨道卫星群,为全球范围用户提供高速低延迟的宽带网络服务,此卫星进一步扩充了星链星座的在轨卫星规模,持续完善全球卫星互联网覆盖能力。

Basic Information
目录编号:
62811
目录名称:
STARLINK-32847
国际标识:
2025-018F
轨道中心:
EARTH
卫星名称:
星链-32847
卫星全名:
星链-32847 (STARLINK-32847)
卫星状态:
在轨 (已飞行415 天)
发射日期:
2025-01-24 UTC
国别 :
美国 (US)
星等 :
--
Orbit Information
数据来源 国际轨道数据 AOE轨道数据
星历时间 2026-03-15T04:38:44+0800
8小时前
查看轨道信息
2026-03-10T22:00:00+0800
4天前
查看轨道信息
半长轴 6853.402km 6853.396km
偏心率 0.0001221 0.0001131
轨道倾角 53.158° 53.161°
近地点辐角 82.668° 157.746°
升交点赤经 285.323° 305.194°
平近点角 277.446° 29.012°
近地点 474.428km 474.483km
远地点 476.102km 476.035km
周期 94.106分钟 94.106分钟
每日圈数 15.301833 15.301856
Detailed Information
固有亮度:
5
最大亮度:
2.5
卫星平台:
Starlink V1.0
覆盖范围:
全球
运营商:
太空探索技术公司
运营商所在国:
美国
制造商(研发单位):
太空探索技术公司
制造商所在国:
美国
使用方式:
暂无
Satellite Introduction
Starlink 计划是 SpaceX 推出的全球卫星互联网项目,通过发射低轨道卫星,为全球尤其是偏远地区提供高速、低延迟的互联网服务。自 2019 年起,Starlink 已部署数千颗卫星,旨在缩小全球数字鸿沟,推动互联网普及。该项目还为军事、航空等行业提供通信支持,带来广泛经济效益。
2D Orbit Map
3D Orbit Map
Orbit Altitude Analysis Chart
Orbit Inclination Analysis Chart
Orbit Comprehensive Analysis Chart
View Comprehensive Chart